Year,Month,Day,Hour,Minute,Value (Times are PST for temperature in C)
2010,08,22,00,00,14.50
2010,08,22,00,01,14.50
2010,08,22,00,02,14.50
2010,08,22,00,03,14.50
2010,08,22,00,04,14.50
2010,08,22,00,05,14.40
2010,08,22,00,06,14.40
2010,08,22,00,07,14.40
2010,08,22,00,08,14.40
2010,08,22,00,09,14.40
2010,08,22,00,10,14.40
2010,08,22,00,11,14.40
2010,08,22,00,12,14.40
2010,08,22,00,13,14.40
2010,08,22,00,14,14.40
2010,08,22,00,15,14.40
2010,08,22,00,16,14.40
2010,08,22,00,17,14.40
2010,08,22,00,18,14.40
2010,08,22,00,19,14.40
2010,08,22,00,20,14.40
2010,08,22,00,21,14.40
2010,08,22,00,22,14.40
2010,08,22,00,23,14.40
2010,08,22,00,24,14.40
2010,08,22,00,25,14.40
2010,08,22,00,26,14.40
2010,08,22,00,27,14.40
2010,08,22,00,28,14.40
2010,08,22,00,29,14.40
2010,08,22,00,30,14.40
2010,08,22,00,31,14.40
2010,08,22,00,32,14.30
2010,08,22,00,33,14.30
2010,08,22,00,34,14.30
2010,08,22,00,35,14.30
2010,08,22,00,36,14.30
2010,08,22,00,37,14.20
2010,08,22,00,38,14.20
2010,08,22,00,39,14.20
2010,08,22,00,40,14.20
2010,08,22,00,41,14.20
2010,08,22,00,42,14.20
2010,08,22,00,43,14.20
2010,08,22,00,44,14.20
2010,08,22,00,45,14.20
2010,08,22,00,46,14.20
2010,08,22,00,47,14.20
2010,08,22,00,48,14.20
2010,08,22,00,49,14.20
2010,08,22,00,50,14.20
2010,08,22,00,51,14.30
2010,08,22,00,52,14.30
2010,08,22,00,53,14.30
2010,08,22,00,54,14.30
2010,08,22,00,55,14.30
2010,08,22,00,56,14.30
2010,08,22,00,57,14.20
2010,08,22,00,58,14.20
2010,08,22,00,59,14.20
2010,08,22,01,00,14.20
2010,08,22,01,01,14.20
2010,08,22,01,02,14.20
2010,08,22,01,03,14.20
2010,08,22,01,04,14.20
2010,08,22,01,05,14.20
2010,08,22,01,06,14.20
2010,08,22,01,07,14.10
2010,08,22,01,08,14.10
2010,08,22,01,09,14.10
2010,08,22,01,10,14.10
2010,08,22,01,11,14.10
2010,08,22,01,12,14.00
2010,08,22,01,13,14.00
2010,08,22,01,14,14.00
2010,08,22,01,15,14.00
2010,08,22,01,16,14.00
2010,08,22,01,17,14.00
2010,08,22,01,18,14.00
2010,08,22,01,19,14.00
2010,08,22,01,20,13.90
2010,08,22,01,21,13.90
2010,08,22,01,22,13.90
2010,08,22,01,23,13.90
2010,08,22,01,24,13.90
2010,08,22,01,25,13.90
2010,08,22,01,26,13.90
2010,08,22,01,27,13.90
2010,08,22,01,28,13.90
2010,08,22,01,29,13.80
2010,08,22,01,30,13.80
2010,08,22,01,31,13.80
2010,08,22,01,32,13.80
2010,08,22,01,33,13.70
2010,08,22,01,34,13.70
2010,08,22,01,35,13.70
2010,08,22,01,36,13.70
2010,08,22,01,37,13.60
2010,08,22,01,38,13.60
2010,08,22,01,39,13.50
2010,08,22,01,40,13.50
2010,08,22,01,41,13.50
2010,08,22,01,42,13.40
2010,08,22,01,43,13.30
2010,08,22,01,44,13.30
2010,08,22,01,45,13.30
2010,08,22,01,46,13.30
2010,08,22,01,47,13.30
2010,08,22,01,48,13.20
2010,08,22,01,49,13.20
2010,08,22,01,50,13.20
2010,08,22,01,51,13.10
2010,08,22,01,52,13.10
2010,08,22,01,53,13.10
2010,08,22,01,54,13.10
2010,08,22,01,55,13.10
2010,08,22,01,56,13.00
2010,08,22,01,57,13.00
2010,08,22,01,58,13.00
2010,08,22,01,59,13.00
2010,08,22,02,00,12.90
2010,08,22,02,01,12.90
2010,08,22,02,02,12.90
2010,08,22,02,03,12.90
2010,08,22,02,04,12.90
2010,08,22,02,05,12.90
2010,08,22,02,06,12.90
2010,08,22,02,07,12.90
2010,08,22,02,08,12.90
2010,08,22,02,09,12.90
2010,08,22,02,10,12.90
2010,08,22,02,11,12.80
2010,08,22,02,12,12.80
2010,08,22,02,13,12.80
2010,08,22,02,14,12.80
2010,08,22,02,15,12.80
2010,08,22,02,16,12.90
2010,08,22,02,17,12.90
2010,08,22,02,18,12.90
2010,08,22,02,19,12.90
2010,08,22,02,20,12.90
2010,08,22,02,21,12.90
2010,08,22,02,22,12.90
2010,08,22,02,23,12.90
2010,08,22,02,24,12.90
2010,08,22,02,25,12.90
2010,08,22,02,26,12.90
2010,08,22,02,27,12.90
2010,08,22,02,28,12.90
2010,08,22,02,29,12.90
2010,08,22,02,30,12.90
2010,08,22,02,31,12.80
2010,08,22,02,32,12.80
2010,08,22,02,33,12.80
2010,08,22,02,34,12.80
2010,08,22,02,35,12.80
2010,08,22,02,36,12.80
2010,08,22,02,37,12.80
2010,08,22,02,38,12.80
2010,08,22,02,39,12.80
2010,08,22,02,40,12.80
2010,08,22,02,41,12.80
2010,08,22,02,42,12.70
2010,08,22,02,43,12.70
2010,08,22,02,44,12.70
2010,08,22,02,45,12.70
2010,08,22,02,46,12.70
2010,08,22,02,47,12.70
2010,08,22,02,48,12.70
2010,08,22,02,49,12.70
2010,08,22,02,50,12.70
2010,08,22,02,51,12.60
2010,08,22,02,52,12.60
2010,08,22,02,53,12.60
2010,08,22,02,54,12.60
2010,08,22,02,55,12.60
2010,08,22,02,56,12.60
2010,08,22,02,57,12.60
2010,08,22,02,58,12.60
2010,08,22,02,59,12.60
2010,08,22,03,00,12.60
2010,08,22,03,01,12.50
2010,08,22,03,02,12.50
2010,08,22,03,03,12.50
2010,08,22,03,04,12.50
2010,08,22,03,05,12.50
2010,08,22,03,06,12.40
2010,08,22,03,07,12.40
2010,08,22,03,08,12.40
2010,08,22,03,09,12.40
2010,08,22,03,10,12.40
2010,08,22,03,11,12.40
2010,08,22,03,12,12.40
2010,08,22,03,13,12.30
2010,08,22,03,14,12.30
2010,08,22,03,15,12.30
2010,08,22,03,16,12.30
2010,08,22,03,17,12.30
2010,08,22,03,18,12.40
2010,08,22,03,19,12.40
2010,08,22,03,20,12.40
2010,08,22,03,21,12.40
2010,08,22,03,22,12.40
2010,08,22,03,23,12.40
2010,08,22,03,24,12.40
2010,08,22,03,25,12.40
2010,08,22,03,26,12.40
2010,08,22,03,27,12.40
2010,08,22,03,28,12.40
2010,08,22,03,29,12.40
2010,08,22,03,30,12.40
2010,08,22,03,31,12.40
2010,08,22,03,32,12.40
2010,08,22,03,33,12.40
2010,08,22,03,34,12.40
2010,08,22,03,35,12.40
2010,08,22,03,36,12.40
2010,08,22,03,37,12.40
2010,08,22,03,38,12.40
2010,08,22,03,39,12.50
2010,08,22,03,40,12.50
2010,08,22,03,41,12.50
2010,08,22,03,42,12.50
2010,08,22,03,43,12.50
2010,08,22,03,44,12.50
2010,08,22,03,45,12.50
2010,08,22,03,46,12.50
2010,08,22,03,47,12.50
2010,08,22,03,48,12.50
2010,08,22,03,49,12.50
2010,08,22,03,50,12.50
2010,08,22,03,51,12.50
2010,08,22,03,52,12.50
2010,08,22,03,53,12.50
2010,08,22,03,54,12.60
2010,08,22,03,55,12.60
2010,08,22,03,56,12.60
2010,08,22,03,57,12.60
2010,08,22,03,58,12.60
2010,08,22,03,59,12.60
2010,08,22,04,00,12.60
2010,08,22,04,01,12.60
2010,08,22,04,02,12.70
2010,08,22,04,03,12.70
2010,08,22,04,04,12.70
2010,08,22,04,05,12.70
2010,08,22,04,06,12.70
2010,08,22,04,07,12.70
2010,08,22,04,08,12.70
2010,08,22,04,09,12.70
2010,08,22,04,10,12.70
2010,08,22,04,11,12.70
2010,08,22,04,12,12.70
2010,08,22,04,13,12.70
2010,08,22,04,14,12.70
2010,08,22,04,15,12.70
2010,08,22,04,16,12.70
2010,08,22,04,17,12.70
2010,08,22,04,18,12.80
2010,08,22,04,19,12.80
2010,08,22,04,20,12.80
2010,08,22,04,21,12.80
2010,08,22,04,22,12.80
2010,08,22,04,23,12.80
2010,08,22,04,24,12.80
2010,08,22,04,25,12.80
2010,08,22,04,26,12.80
2010,08,22,04,27,12.80
2010,08,22,04,28,12.80
2010,08,22,04,29,12.80
2010,08,22,04,30,12.80
2010,08,22,04,31,12.80
2010,08,22,04,32,12.80
2010,08,22,04,33,12.80
2010,08,22,04,34,12.80
2010,08,22,04,35,12.80
2010,08,22,04,36,12.80
2010,08,22,04,37,12.80
2010,08,22,04,38,12.80
2010,08,22,04,39,12.80
2010,08,22,04,40,12.80
2010,08,22,04,41,12.80
2010,08,22,04,42,12.80
2010,08,22,04,43,12.80
2010,08,22,04,44,12.80
2010,08,22,04,45,12.80
2010,08,22,04,46,12.80
2010,08,22,04,47,12.80
2010,08,22,04,48,12.80
2010,08,22,04,49,12.80
2010,08,22,04,50,12.70
2010,08,22,04,51,12.70
2010,08,22,04,52,12.70
2010,08,22,04,53,12.70
2010,08,22,04,54,12.70
2010,08,22,04,55,12.70
2010,08,22,04,56,12.70
2010,08,22,04,57,12.70
2010,08,22,04,58,12.70
2010,08,22,04,59,12.70
2010,08,22,05,00,12.70
2010,08,22,05,01,12.70
2010,08,22,05,02,12.70
2010,08,22,05,03,12.60
2010,08,22,05,04,12.60
2010,08,22,05,05,12.60
2010,08,22,05,06,12.60
2010,08,22,05,07,12.60
2010,08,22,05,08,12.60
2010,08,22,05,09,12.60
2010,08,22,05,10,12.60
2010,08,22,05,11,12.60
2010,08,22,05,12,12.60
2010,08,22,05,13,12.60
2010,08,22,05,14,12.60
2010,08,22,05,15,12.60
2010,08,22,05,16,12.60
2010,08,22,05,17,12.60
2010,08,22,05,18,12.60
2010,08,22,05,19,12.60
2010,08,22,05,20,12.60
2010,08,22,05,21,12.60
2010,08,22,05,22,12.60
2010,08,22,05,23,12.60
2010,08,22,05,24,12.60
2010,08,22,05,25,12.60
2010,08,22,05,26,12.60
2010,08,22,05,27,12.60
2010,08,22,05,28,12.60
2010,08,22,05,29,12.60
2010,08,22,05,30,12.60
2010,08,22,05,31,12.60
2010,08,22,05,32,12.60
2010,08,22,05,33,12.60
2010,08,22,05,34,12.60
2010,08,22,05,35,12.60
2010,08,22,05,36,12.60
2010,08,22,05,37,12.60
2010,08,22,05,38,12.60
2010,08,22,05,39,12.70
2010,08,22,05,40,12.70
2010,08,22,05,41,12.70
2010,08,22,05,42,12.70
2010,08,22,05,43,12.70
2010,08,22,05,44,12.70
2010,08,22,05,45,12.70
2010,08,22,05,46,12.70
2010,08,22,05,47,12.70
2010,08,22,05,48,12.70
2010,08,22,05,49,12.70
2010,08,22,05,50,12.70
2010,08,22,05,51,12.70
2010,08,22,05,52,12.60
2010,08,22,05,53,12.60
2010,08,22,05,54,12.60
2010,08,22,05,55,12.60
2010,08,22,05,56,12.60
2010,08,22,05,57,12.60
2010,08,22,05,58,12.50
2010,08,22,05,59,12.50
2010,08,22,06,00,12.50
2010,08,22,06,01,12.50
2010,08,22,06,02,12.50
2010,08,22,06,03,12.50
2010,08,22,06,04,12.50
2010,08,22,06,05,12.50
2010,08,22,06,06,12.50
2010,08,22,06,07,12.50
2010,08,22,06,08,12.50
2010,08,22,06,09,12.50
2010,08,22,06,10,12.50
2010,08,22,06,11,12.50
2010,08,22,06,12,12.50
2010,08,22,06,13,12.50
2010,08,22,06,14,12.50
2010,08,22,06,15,12.50
2010,08,22,06,16,12.40
2010,08,22,06,17,12.40
2010,08,22,06,18,12.50
2010,08,22,06,19,12.50
2010,08,22,06,20,12.50
2010,08,22,06,21,12.50
2010,08,22,06,22,12.50
2010,08,22,06,23,12.50
2010,08,22,06,24,12.50
2010,08,22,06,25,12.50
2010,08,22,06,26,12.50
2010,08,22,06,27,12.50
2010,08,22,06,28,12.50
2010,08,22,06,29,12.60
2010,08,22,06,30,12.60
2010,08,22,06,31,12.60
2010,08,22,06,32,12.60
2010,08,22,06,33,12.50
2010,08,22,06,34,12.50
2010,08,22,06,35,12.50
2010,08,22,06,36,12.50
2010,08,22,06,37,12.50
2010,08,22,06,38,12.50
2010,08,22,06,39,12.50
2010,08,22,06,40,12.50
2010,08,22,06,41,12.50
2010,08,22,06,42,12.50
2010,08,22,06,43,12.40
2010,08,22,06,44,12.40
2010,08,22,06,45,12.40
2010,08,22,06,46,12.40
2010,08,22,06,47,12.40
2010,08,22,06,48,12.40
2010,08,22,06,49,12.50
2010,08,22,06,50,12.50
2010,08,22,06,51,12.50
2010,08,22,06,52,12.50
2010,08,22,06,53,12.50
2010,08,22,06,54,12.60
2010,08,22,06,55,12.60
2010,08,22,06,56,12.70
2010,08,22,06,57,12.70
2010,08,22,06,58,12.80
2010,08,22,06,59,12.80
2010,08,22,07,00,12.80
2010,08,22,07,01,12.80
2010,08,22,07,02,12.90
2010,08,22,07,03,13.00
2010,08,22,07,04,13.00
2010,08,22,07,05,13.10
2010,08,22,07,06,13.10
2010,08,22,07,07,13.20
2010,08,22,07,08,13.20
2010,08,22,07,09,13.30
2010,08,22,07,10,13.30
2010,08,22,07,11,13.30
2010,08,22,07,12,13.40
2010,08,22,07,13,13.40
2010,08,22,07,14,13.50
2010,08,22,07,15,13.50
2010,08,22,07,16,13.60
2010,08,22,07,17,13.60
2010,08,22,07,18,13.70
2010,08,22,07,19,13.70
2010,08,22,07,20,13.70
2010,08,22,07,21,13.70
2010,08,22,07,22,13.80
2010,08,22,07,23,13.80
2010,08,22,07,24,13.80
2010,08,22,07,25,13.90
2010,08,22,07,26,13.90
2010,08,22,07,27,14.00
2010,08,22,07,28,14.10
2010,08,22,07,29,14.10
2010,08,22,07,30,14.20
2010,08,22,07,31,14.20
2010,08,22,07,32,14.20
2010,08,22,07,33,14.20
2010,08,22,07,34,14.20
2010,08,22,07,35,14.20
2010,08,22,07,36,14.30
2010,08,22,07,37,14.40
2010,08,22,07,38,14.40
2010,08,22,07,39,14.50
2010,08,22,07,40,14.50
2010,08,22,07,41,14.60
2010,08,22,07,42,14.60
2010,08,22,07,43,14.70
2010,08,22,07,44,14.80
2010,08,22,07,45,14.80
2010,08,22,07,46,14.80
2010,08,22,07,47,14.90
2010,08,22,07,48,14.90
2010,08,22,07,49,14.90
2010,08,22,07,50,15.00
2010,08,22,07,51,15.00
2010,08,22,07,52,14.90
2010,08,22,07,53,14.90
2010,08,22,07,54,14.90
2010,08,22,07,55,14.90
2010,08,22,07,56,14.80
2010,08,22,07,57,14.80
2010,08,22,07,58,14.80
2010,08,22,07,59,14.80
2010,08,22,08,00,14.80
2010,08,22,08,01,14.80
2010,08,22,08,02,14.80
2010,08,22,08,03,14.80
2010,08,22,08,04,14.80
2010,08,22,08,05,14.70
2010,08,22,08,06,14.70
2010,08,22,08,07,14.70
2010,08,22,08,08,14.70
2010,08,22,08,09,14.70
2010,08,22,08,10,14.70
2010,08,22,08,11,14.70
2010,08,22,08,12,14.70
2010,08,22,08,13,14.70
2010,08,22,08,14,14.70
2010,08,22,08,15,14.70
2010,08,22,08,16,14.70
2010,08,22,08,17,14.70
2010,08,22,08,18,14.70
2010,08,22,08,19,14.70
2010,08,22,08,20,14.70
2010,08,22,08,21,14.70
2010,08,22,08,22,14.70
2010,08,22,08,23,14.70
2010,08,22,08,24,14.70
2010,08,22,08,25,14.70
2010,08,22,08,26,14.70
2010,08,22,08,27,14.80
2010,08,22,08,28,14.80
2010,08,22,08,29,14.80
2010,08,22,08,30,14.80
2010,08,22,08,31,14.80
2010,08,22,08,32,14.80
2010,08,22,08,33,14.80
2010,08,22,08,34,14.80
2010,08,22,08,35,14.80
2010,08,22,08,36,14.80
2010,08,22,08,37,14.80
2010,08,22,08,38,14.80
2010,08,22,08,39,14.80
2010,08,22,08,40,14.80
2010,08,22,08,41,14.80
2010,08,22,08,42,14.80
2010,08,22,08,43,14.80
2010,08,22,08,44,14.80
2010,08,22,08,45,14.70
2010,08,22,08,46,14.70
2010,08,22,08,47,14.70
2010,08,22,08,48,14.70
2010,08,22,08,49,14.70
2010,08,22,08,50,14.70
2010,08,22,08,51,14.70
2010,08,22,08,52,14.70
2010,08,22,08,53,14.70
2010,08,22,08,54,14.70
2010,08,22,08,55,14.80
2010,08,22,08,56,14.80
2010,08,22,08,57,14.80
2010,08,22,08,58,14.80
2010,08,22,08,59,14.80
2010,08,22,09,00,14.80
2010,08,22,09,01,14.80
2010,08,22,09,02,14.80
2010,08,22,09,03,14.80
2010,08,22,09,04,14.80
2010,08,22,09,05,14.80
2010,08,22,09,06,14.80
2010,08,22,09,07,14.80
2010,08,22,09,08,14.80
2010,08,22,09,09,14.80
2010,08,22,09,10,14.80
2010,08,22,09,11,14.80
2010,08,22,09,12,14.80
2010,08,22,09,13,14.80
2010,08,22,09,14,14.80
2010,08,22,09,15,14.80
2010,08,22,09,16,14.90
2010,08,22,09,17,14.80
2010,08,22,09,18,14.80
2010,08,22,09,19,14.80
2010,08,22,09,20,14.80
2010,08,22,09,21,14.80
2010,08,22,09,22,14.80
2010,08,22,09,23,14.80
2010,08,22,09,24,14.80
2010,08,22,09,25,14.80
2010,08,22,09,26,14.80
2010,08,22,09,27,14.80
2010,08,22,09,28,14.80
2010,08,22,09,29,14.80
2010,08,22,09,30,14.70
2010,08,22,09,31,14.70
2010,08,22,09,32,14.70
2010,08,22,09,33,14.70
2010,08,22,09,34,14.70
2010,08,22,09,35,14.70
2010,08,22,09,36,14.70
2010,08,22,09,37,14.70
2010,08,22,09,38,14.70
2010,08,22,09,39,14.70
2010,08,22,09,40,14.70
2010,08,22,09,41,14.70
2010,08,22,09,42,14.80
2010,08,22,09,43,14.70
2010,08,22,09,44,14.70
2010,08,22,09,45,14.70
2010,08,22,09,46,14.70
2010,08,22,09,47,14.80
2010,08,22,09,48,14.80
2010,08,22,09,49,14.80
2010,08,22,09,50,14.80
2010,08,22,09,51,14.80
2010,08,22,09,52,14.80
2010,08,22,09,53,14.90
2010,08,22,09,54,14.90
2010,08,22,09,55,14.90
2010,08,22,09,56,15.00
2010,08,22,09,57,15.00
2010,08,22,09,58,15.00
2010,08,22,09,59,15.00
2010,08,22,10,00,15.10
2010,08,22,10,01,15.10
2010,08,22,10,02,15.20
2010,08,22,10,03,15.20
2010,08,22,10,04,15.20
2010,08,22,10,05,15.20
2010,08,22,10,06,15.20
2010,08,22,10,07,15.20
2010,08,22,10,08,15.20
2010,08,22,10,09,15.20
2010,08,22,10,10,15.20
2010,08,22,10,11,15.30
2010,08,22,10,12,15.30
2010,08,22,10,13,15.30
2010,08,22,10,14,15.30
2010,08,22,10,15,15.40
2010,08,22,10,16,15.50
2010,08,22,10,17,15.50
2010,08,22,10,18,15.60
2010,08,22,10,19,15.70
2010,08,22,10,20,15.70
2010,08,22,10,21,15.80
2010,08,22,10,22,15.80
2010,08,22,10,23,15.90
2010,08,22,10,24,15.90
2010,08,22,10,25,16.10
2010,08,22,10,26,16.10
2010,08,22,10,27,16.20
2010,08,22,10,28,16.20
2010,08,22,10,29,16.20
2010,08,22,10,30,16.20
2010,08,22,10,31,16.20
2010,08,22,10,32,16.20
2010,08,22,10,33,16.20
2010,08,22,10,34,16.10
2010,08,22,10,35,16.10
2010,08,22,10,36,16.10
2010,08,22,10,37,16.10
2010,08,22,10,38,15.90
2010,08,22,10,39,15.80
2010,08,22,10,40,15.80
2010,08,22,10,41,15.70
2010,08,22,10,42,15.70
2010,08,22,10,43,15.80
2010,08,22,10,44,15.70
2010,08,22,10,45,15.70
2010,08,22,10,46,15.70
2010,08,22,10,47,15.70
2010,08,22,10,48,15.80
2010,08,22,10,49,15.80
2010,08,22,10,50,15.90
2010,08,22,10,51,16.00
2010,08,22,10,52,16.10
2010,08,22,10,53,16.10
2010,08,22,10,54,16.20
2010,08,22,10,55,16.20
2010,08,22,10,56,16.20
2010,08,22,10,57,16.30
2010,08,22,10,58,16.30
2010,08,22,10,59,16.20
2010,08,22,11,00,16.20
2010,08,22,11,01,16.20
2010,08,22,11,02,16.20
2010,08,22,11,03,16.20
2010,08,22,11,04,16.20
2010,08,22,11,05,16.10
2010,08,22,11,06,16.20
2010,08,22,11,07,16.30
2010,08,22,11,08,16.40
2010,08,22,11,09,16.40
2010,08,22,11,10,16.40
2010,08,22,11,11,16.40
2010,08,22,11,12,16.60
2010,08,22,11,13,16.60
2010,08,22,11,14,16.60
2010,08,22,11,15,16.60
2010,08,22,11,16,16.60
2010,08,22,11,17,16.70
2010,08,22,11,18,16.70
2010,08,22,11,19,16.70
2010,08,22,11,20,16.80
2010,08,22,11,21,16.80
2010,08,22,11,22,16.80
2010,08,22,11,23,16.90
2010,08,22,11,24,16.90
2010,08,22,11,25,17.00
2010,08,22,11,26,17.00
2010,08,22,11,27,17.00
2010,08,22,11,28,17.00
2010,08,22,11,29,17.10
2010,08,22,11,30,17.20
2010,08,22,11,31,17.30
2010,08,22,11,32,17.30
2010,08,22,11,33,17.30
2010,08,22,11,34,17.30
2010,08,22,11,35,17.30
2010,08,22,11,36,17.40
2010,08,22,11,37,17.50
2010,08,22,11,38,17.60
2010,08,22,11,39,17.70
2010,08,22,11,40,17.80
2010,08,22,11,41,17.80
2010,08,22,11,42,17.80
2010,08,22,11,43,17.70
2010,08,22,11,44,17.80
2010,08,22,11,45,17.80
2010,08,22,11,46,17.90
2010,08,22,11,47,17.90
2010,08,22,11,48,17.90
2010,08,22,11,49,18.00
2010,08,22,11,50,18.10
2010,08,22,11,51,18.20
2010,08,22,11,52,18.10
2010,08,22,11,53,18.10
2010,08,22,11,54,18.10
2010,08,22,11,55,18.10
2010,08,22,11,56,18.10
2010,08,22,11,57,18.10
2010,08,22,11,58,18.10
2010,08,22,11,59,18.20
2010,08,22,12,00,18.20
2010,08,22,12,01,18.20
2010,08,22,12,02,18.20
2010,08,22,12,03,18.10
2010,08,22,12,04,18.00
2010,08,22,12,05,17.90
2010,08,22,12,06,17.90
2010,08,22,12,07,17.90
2010,08,22,12,08,17.90
2010,08,22,12,09,17.80
2010,08,22,12,10,17.80
2010,08,22,12,11,17.80
2010,08,22,12,12,17.80
2010,08,22,12,13,17.80
2010,08,22,12,14,17.80
2010,08,22,12,15,17.90
2010,08,22,12,16,18.00
2010,08,22,12,17,18.10
2010,08,22,12,18,18.20
2010,08,22,12,19,18.20
2010,08,22,12,20,18.20
2010,08,22,12,21,18.20
2010,08,22,12,22,18.20
2010,08,22,12,23,18.20
2010,08,22,12,24,18.20
2010,08,22,12,25,18.20
2010,08,22,12,26,18.10
2010,08,22,12,27,18.00
2010,08,22,12,28,17.90
2010,08,22,12,29,17.90
2010,08,22,12,30,17.90
2010,08,22,12,31,17.90
2010,08,22,12,32,17.80
2010,08,22,12,33,17.80
2010,08,22,12,34,17.80
2010,08,22,12,35,17.70
2010,08,22,12,36,17.70
2010,08,22,12,37,17.80
2010,08,22,12,38,17.90
2010,08,22,12,39,17.90
2010,08,22,12,40,17.80
2010,08,22,12,41,17.80
2010,08,22,12,42,17.70
2010,08,22,12,43,17.70
2010,08,22,12,44,17.70
2010,08,22,12,45,17.60
2010,08,22,12,46,17.70
2010,08,22,12,47,17.70
2010,08,22,12,48,17.80
2010,08,22,12,49,17.80
2010,08,22,12,50,17.80
2010,08,22,12,51,17.70
2010,08,22,12,52,17.60
2010,08,22,12,53,17.50
2010,08,22,12,54,17.50
2010,08,22,12,55,17.50
2010,08,22,12,56,17.50
2010,08,22,12,57,17.50
2010,08,22,12,58,17.60
2010,08,22,12,59,17.70
2010,08,22,13,00,17.80
2010,08,22,13,01,17.80
2010,08,22,13,02,17.80
2010,08,22,13,03,17.90
2010,08,22,13,04,17.90
2010,08,22,13,05,17.90
2010,08,22,13,06,17.90
2010,08,22,13,07,17.90
2010,08,22,13,08,17.90
2010,08,22,13,09,17.90
2010,08,22,13,10,17.90
2010,08,22,13,11,17.90
2010,08,22,13,12,17.90
2010,08,22,13,13,17.90
2010,08,22,13,14,17.90
2010,08,22,13,15,17.80
2010,08,22,13,16,17.80
2010,08,22,13,17,17.80
2010,08,22,13,18,17.80
2010,08,22,13,19,17.70
2010,08,22,13,20,17.70
2010,08,22,13,21,17.70
2010,08,22,13,22,17.70
2010,08,22,13,23,17.70
2010,08,22,13,24,17.70
2010,08,22,13,25,17.70
2010,08,22,13,26,17.60
2010,08,22,13,27,17.60
2010,08,22,13,28,17.70
2010,08,22,13,29,17.80
2010,08,22,13,30,17.80
2010,08,22,13,31,17.80
2010,08,22,13,32,17.70
2010,08,22,13,33,17.70
2010,08,22,13,34,17.60
2010,08,22,13,35,17.60
2010,08,22,13,36,17.60
2010,08,22,13,37,17.50
2010,08,22,13,38,17.50
2010,08,22,13,39,17.50
2010,08,22,13,40,17.50
2010,08,22,13,41,17.60
2010,08,22,13,42,17.60
2010,08,22,13,43,17.60
2010,08,22,13,44,17.70
2010,08,22,13,45,17.70
2010,08,22,13,46,17.80
2010,08,22,13,47,17.80
2010,08,22,13,48,17.90
2010,08,22,13,49,17.90
2010,08,22,13,50,17.90
2010,08,22,13,51,18.10
2010,08,22,13,52,18.10
2010,08,22,13,53,18.00
2010,08,22,13,54,17.90
2010,08,22,13,55,17.90
2010,08,22,13,56,17.90
2010,08,22,13,57,17.90
2010,08,22,13,58,17.90
2010,08,22,13,59,17.90
2010,08,22,14,00,17.90
2010,08,22,14,01,17.90
2010,08,22,14,02,18.10
2010,08,22,14,03,18.10
2010,08,22,14,04,18.20
2010,08,22,14,05,18.10
2010,08,22,14,06,18.00
2010,08,22,14,07,17.90
2010,08,22,14,08,17.90
2010,08,22,14,09,17.90
2010,08,22,14,10,18.10
2010,08,22,14,11,18.20
2010,08,22,14,12,18.20
2010,08,22,14,13,18.30
2010,08,22,14,14,18.30
2010,08,22,14,15,18.40
2010,08,22,14,16,18.50
2010,08,22,14,17,18.50
2010,08,22,14,18,18.60
2010,08,22,14,19,18.60
2010,08,22,14,20,18.60
2010,08,22,14,21,18.60
2010,08,22,14,22,18.50
2010,08,22,14,23,18.50
2010,08,22,14,24,18.40
2010,08,22,14,25,18.30
2010,08,22,14,26,18.20
2010,08,22,14,27,18.10
2010,08,22,14,28,18.10
2010,08,22,14,29,18.10
2010,08,22,14,30,18.10
2010,08,22,14,31,18.10
2010,08,22,14,32,18.10
2010,08,22,14,33,18.10
2010,08,22,14,34,18.20
2010,08,22,14,35,18.20
2010,08,22,14,36,18.10
2010,08,22,14,37,18.00
2010,08,22,14,38,17.90
2010,08,22,14,39,17.90
2010,08,22,14,40,17.90
2010,08,22,14,41,17.90
2010,08,22,14,42,17.90
2010,08,22,14,43,17.90
2010,08,22,14,44,18.00
2010,08,22,14,45,18.10
2010,08,22,14,46,18.10
2010,08,22,14,47,18.20
2010,08,22,14,48,18.20
2010,08,22,14,49,18.20
2010,08,22,14,50,18.20
2010,08,22,14,51,18.20
2010,08,22,14,52,18.20
2010,08,22,14,53,18.20
2010,08,22,14,54,18.20
2010,08,22,14,55,18.20
2010,08,22,14,56,18.30
2010,08,22,14,57,18.20
2010,08,22,14,58,18.20
2010,08,22,14,59,18.20
2010,08,22,15,00,18.20
2010,08,22,15,01,18.20
2010,08,22,15,02,18.20
2010,08,22,15,03,18.20
2010,08,22,15,04,18.20
2010,08,22,15,05,18.30
2010,08,22,15,06,18.30
2010,08,22,15,07,18.30
2010,08,22,15,08,18.30
2010,08,22,15,09,18.40
2010,08,22,15,10,18.50
2010,08,22,15,11,18.50
2010,08,22,15,12,18.70
2010,08,22,15,13,18.80
2010,08,22,15,14,18.90
2010,08,22,15,15,18.90
2010,08,22,15,16,18.90
2010,08,22,15,17,18.90
2010,08,22,15,18,18.90
2010,08,22,15,19,19.00
2010,08,22,15,20,19.10
2010,08,22,15,21,19.00
2010,08,22,15,22,18.90
2010,08,22,15,23,18.90
2010,08,22,15,24,18.90
2010,08,22,15,25,18.90
2010,08,22,15,26,18.90
2010,08,22,15,27,18.90
2010,08,22,15,28,18.90
2010,08,22,15,29,18.90
2010,08,22,15,30,18.70
2010,08,22,15,31,18.60
2010,08,22,15,32,18.50
2010,08,22,15,33,18.40
2010,08,22,15,34,18.30
2010,08,22,15,35,18.30
2010,08,22,15,36,18.20
2010,08,22,15,37,18.20
2010,08,22,15,38,18.20
2010,08,22,15,39,18.30
2010,08,22,15,40,18.30
2010,08,22,15,41,18.30
2010,08,22,15,42,18.30
2010,08,22,15,43,18.30
2010,08,22,15,44,18.30
2010,08,22,15,45,18.30
2010,08,22,15,46,18.30
2010,08,22,15,47,18.40
2010,08,22,15,48,18.40
2010,08,22,15,49,18.30
2010,08,22,15,50,18.30
2010,08,22,15,51,18.40
2010,08,22,15,52,18.40
2010,08,22,15,53,18.40
2010,08,22,15,54,18.40
2010,08,22,15,55,18.40
2010,08,22,15,56,18.40
2010,08,22,15,57,18.30
2010,08,22,15,58,18.30
2010,08,22,15,59,18.30
2010,08,22,16,00,18.30
2010,08,22,16,01,18.30
2010,08,22,16,02,18.40
2010,08,22,16,03,18.40
2010,08,22,16,04,18.40
2010,08,22,16,05,18.50
2010,08,22,16,06,18.60
2010,08,22,16,07,18.60
2010,08,22,16,08,18.60
2010,08,22,16,09,18.60
2010,08,22,16,10,18.70
2010,08,22,16,11,18.60
2010,08,22,16,12,18.60
2010,08,22,16,13,18.60
2010,08,22,16,14,18.60
2010,08,22,16,15,18.70
2010,08,22,16,16,18.70
2010,08,22,16,17,18.80
2010,08,22,16,18,18.90
2010,08,22,16,19,19.00
2010,08,22,16,20,19.10
2010,08,22,16,21,19.10
2010,08,22,16,22,19.10
2010,08,22,16,23,19.10
2010,08,22,16,24,19.10
2010,08,22,16,25,19.10
2010,08,22,16,26,19.10
2010,08,22,16,27,19.20
2010,08,22,16,28,19.20
2010,08,22,16,29,19.20
2010,08,22,16,30,19.10
2010,08,22,16,31,19.10
2010,08,22,16,32,18.90
2010,08,22,16,33,18.90
2010,08,22,16,34,18.90
2010,08,22,16,35,18.90
2010,08,22,16,36,19.10
2010,08,22,16,37,19.10
2010,08,22,16,38,19.10
2010,08,22,16,39,19.10
2010,08,22,16,40,19.10
2010,08,22,16,41,19.10
2010,08,22,16,42,19.20
2010,08,22,16,43,19.20
2010,08,22,16,44,19.20
2010,08,22,16,45,19.20
2010,08,22,16,46,19.20
2010,08,22,16,47,19.10
2010,08,22,16,48,19.10
2010,08,22,16,49,19.20
2010,08,22,16,50,19.20
2010,08,22,16,51,19.20
2010,08,22,16,52,19.20
2010,08,22,16,53,19.10
2010,08,22,16,54,19.10
2010,08,22,16,55,19.10
2010,08,22,16,56,19.10
2010,08,22,16,57,19.10
2010,08,22,16,58,19.10
2010,08,22,16,59,19.10
2010,08,22,17,00,19.10
2010,08,22,17,01,19.10
2010,08,22,17,02,19.10
2010,08,22,17,03,19.10
2010,08,22,17,04,19.10
2010,08,22,17,05,19.10
2010,08,22,17,06,19.10
2010,08,22,17,07,19.00
2010,08,22,17,08,18.90
2010,08,22,17,09,18.90
2010,08,22,17,10,18.90
2010,08,22,17,11,18.90
2010,08,22,17,12,18.90
2010,08,22,17,13,18.90
2010,08,22,17,14,18.90
2010,08,22,17,15,18.90
2010,08,22,17,16,18.90
2010,08,22,17,17,18.90
2010,08,22,17,18,18.80
2010,08,22,17,19,18.80